Regional Weather Roundup
Issued by NWS

Home | Current Version | Previous Version | Text Only | Print | Product List | Glossary On
Versions: 1 2 3 4 5 6 7 8 9 10 11 12 13 14 15 16 17 18 19 20 21 22 23 24 25 26 27 28 29 30 31 32 33 34 35 36 37 38 39 40 41 42 43 44 45 46 47 48 49 50
859
ASUS45 KPSR 221910
RWRAZ

ARIZONA HOURLY REGIONAL WEATHER ROUNDUP
NATIONAL WEATHER SERVICE PHOENIX AZ
1200 PM MST FRI MAY 22 2015

NOTE: FAIR INDICATES FEW OR NO CLOUDS BELOW 12,000 FEET WITH NO
SIGNIFICANT WEATHER AND/OR OBSTRUCTIONS TO VISIBILITY.

AZZ001>003-036-222000-
NORTHWEST ARIZONA

CITY           SKY/WX    TMP DP  RH WIND       PRES   REMARKS
BULLHEAD CITY  PTSUNNY   73  36  25 S18G25    29.86S
KINGMAN        LGT RAIN  58  42  55 SW13      29.90F
$$

AZZ004>008-015-016-018-222000-
NORTH CENTRAL ARIZONA

CITY           SKY/WX    TMP DP  RH WIND       PRES   REMARKS
GRAND CANYON   CLOUDY    48  34  58 NW6       29.98F
WILLIAMS       DRIZZLE   45  39  81 SW9G16    30.06F
PRESCOTT       PTSUNNY   59  32  36 SE16G25   29.97S
FLAGSTAFF      MOSUNNY   53  26  35 S21G29    30.01F
PAYSON         SUNNY     63  25  23 S13G21    30.02F
$$

AZZ009>014-017-222000-
NORTHEAST ARIZONA

CITY           SKY/WX    TMP DP  RH WIND       PRES   REMARKS
WINSLOW        SUNNY     71  20  14 S21G28    29.93F
SAINT JOHNS    CLOUDY    68  18  14 SW8       29.95F
WINDOW ROCK    MOSUNNY   64  24  21 S15G24    30.01F
SHOW LOW       PTSUNNY   63  16  16 S29G39    30.00F
$$

AZZ023-222000-
GREATER PHOENIX AREA

CITY           SKY/WX    TMP DP  RH WIND       PRES   REMARKS
PHOENIX        MOSUNNY   80  36  20 S10G23    29.88S
BUCKEYE        SUNNY     73  39  29 SW12G18   29.91F
GLENDALE       MOSUNNY   75  41  29 S12G20    29.90F
LUKE AFB       SUNNY     76  43  30 SW20G25   29.88F
DEER VALLEY    MOSUNNY   75  40  28 SW17G23   29.89S
SCOTTSDALE     SUNNY     75  33  21 S12G21    29.90F
MESA-FALCON    PTSUNNY   75  36  23 S9        29.90
MESA-GATEWAY   MOSUNNY   75  37  25 W12G18    29.92S
CHANDLER       PTSUNNY   75  37  25 S13G20    29.90F
$$

AZZ027-028-222000-
SOUTHWEST MARICOPA COUNTY AND PINAL COUNTY

CITY           SKY/WX    TMP DP  RH WIND       PRES   REMARKS
CASA GRANDE    SUNNY     75  39  27 W13G20    29.89F
GILA BEND      FAIR      74  40  28 W14       29.91F
$$

AZZ503-504-507>509-222000-
SOUTHEAST ARIZONA

CITY           SKY/WX    TMP DP  RH WIND       PRES   REMARKS
TUCSON         SUNNY     80  21  11 SW14G26   29.94F
DAVIS-MONTHAN  SUNNY     79  23  12 S16G23    29.92F
RYAN FIELD       N/A     81  28  15 SW8G25    29.93F
NOGALES        SUNNY     76  28  17 S14       29.99F
SIERRA VISTA   MOSUNNY   75  18  11 S14G26    30.01F
DOUGLAS        SUNNY     79  16   9 S20G26    29.99F
SAFFORD        SUNNY     82  18   9 SW15G23   29.89F
$$

AZZ020-021-025-026-031-222000-
SOUTHWEST ARIZONA

CITY           SKY/WX    TMP DP  RH WIND       PRES   REMARKS
YUMA           SUNNY     77  40  26 W17G31    29.93S
$$

CAZ031-033-041-043-047-048-061-222000-
SOUTHERN CALIFORNIA

CITY           SKY/WX    TMP DP  RH WIND       PRES   REMARKS
DOWNTOWN L.A.  PTSUNNY   67  49  52 MISG      30.02S
L.A. AIRPORT   PTSUNNY   62  50  64 SW13      30.04R
SAN DIEGO      PTSUNNY   66  49  54 W13       30.07S
BURBANK        PTSUNNY   64  45  49 VRB6      30.01S
ONTARIO        CLOUDY    62  44  51 W8        30.03S
RIVERSIDE      CLOUDY    64  47  53 VRB6      30.03S
PALM SPRINGS   MOSUNNY   76  40  27 NW14G23   29.91S
EL CENTRO NAS  MOSUNNY   76  39  26 W13G22    29.94S
IMPERIAL       SUNNY     75  40  28 NW10G23   29.91F
BLYTHE         MOSUNNY   76  41  28 S7G17     29.88S
NEEDLES        PTSUNNY   76  37  24 SW12G17   29.85F
$$

NVZ020-UTZ003-222000-
SOUTHERN NEVADA-UTAH

CITY           SKY/WX    TMP DP  RH WIND       PRES   REMARKS
LAS VEGAS      RAIN      65  53  65 SE8G17    29.81F
SALT LAKE CITY CLOUDY    62  40  44 SW6       29.89F
$$

NMZ009-TXZ055-222000-
NEW MEXICO-WEST TEXAS

CITY           SKY/WX    TMP DP  RH WIND       PRES   REMARKS
ALBUQUERQUE    MOSUNNY   64  43  46 S5        30.06F
EL PASO        MOSUNNY   79  43  27 S8        30.01F
$$


........................KEY........................
SKY/WX - SKY CONDITION/WEATHER
TMP    - TEMPERATURE IN FAHRENHEIT
DP     - DEW POINT IN FAHRENHEIT
RH     - RELATIVE HUMIDITY IN PERCENT
WIND   - DIRECTION AND SPEED IN MILES PER HOUR (MPH)
VRB    - VARIABLE WIND DIRECTION
PRES   - MEAN SEA LEVEL PRESSURE IN INCHES OF MERCURY
         F - FALLING PRESSURE   R - RISING PRESSURE
         S - STEADY PRESSURE
VSB    - VISIBILITY IN MILES
HX     - HEAT INDEX IN FAHRENHEIT
WCI    - WIND CHILL INDEX IN FAHRENHEIT
TC     - TEMPERATURE IN CELSIUS WHICH IS ALSO KNOWN AS
         TEMPERATURE IN CENTIGRADE
AFB    - AIR FORCE BASE
         LUKE AFB IS LUKE AIR FORCE BASE
         DAVIS-MONTHAN IS DAVIS-MONTHAN AIR FORCE BASE
NAS    - NAVAL AIR STATION
         EL CENTRO NAS IS EL CENTRO NAVAL AIR STATION
N/A    - NOT AVAILABLE




USA.gov is the U.S. government's official web portal to all federal, state and local government web resources and services.